Latest Coastal Weather Observations for Cape Grim

IDT60701

Issued at 4:22 pm EST Monday 21 August 2017 (issued every 10 minutes, with the page automatically refreshed every 10 minutes)

About coastal observations | Map of coastal stations | Coastal observations for TAS | Marine services | Other Formats
Station Details ID: 091331 Name: CAPE GRIM Lat: -40.68 Lon: 144.69 Height: 86.0 m
Data from the previous 72 hours. | See also: Recent months at Cape Grim
Date/Time
EST
Temp
°C
Wind Pressure Rain since
9am
mm
Weather Cloud Vis
km
Sea
Height
m
Swell
Dir  Spd
kts
Gust
kts
hPa Trend Height
m
Period
s
Dir
21/04:00pm 9.3 NE 6 8 1013.5 - 0.0 - Partly cloudy - - - - -
21/03:30pm 9.0 ENE 11 13 1013.4 - 0.0 - Cloudy - - - - -
21/03:00pm 9.6 ENE 10 12 1013.2 - 0.0 - Cloudy - - - - -
21/02:30pm 10.4 ENE 6 10 1013.3 - 0.0 - Partly cloudy - - - - -
21/02:00pm 9.6 NNE 6 7 1013.7 - 0.0 - Partly cloudy - - - - -
21/01:30pm 9.5 N 15 17 1013.9 - 0.0 - Partly cloudy - - - - -
21/01:00pm 10.2 N 15 18 1013.9 - 0.0 - Partly cloudy - - - - -
21/12:30pm 11.2 NNE 9 11 1014.1 - 0.0 - Partly cloudy - - - - -
21/12:00pm 11.2 N 8 9 1014.6 - 0.0 - Cloudy - - - - -
21/11:30am 11.5 NNE 11 14 1014.8 - 0.0 - Partly cloudy - - - - -
21/11:00am 10.5 NE 11 13 1014.9 - 0.0 - Partly cloudy - - - - -
21/10:30am 9.4 ENE 8 10 1015.1 - 0.0 - Partly cloudy - - - - -
21/10:00am 8.8 E 9 11 1015.2 - 0.0 - Partly cloudy - - - - -
21/09:30am 8.3 E 11 13 1015.5 - 0.0 - Partly cloudy - - - - -
21/09:00am 7.7 E 11 12 1015.6 - 3.4 - Cloudy - - - - -
21/08:30am 6.9 E 10 11 1015.6 - 3.4 - Cloudy - - - - -
21/08:00am 6.4 E 11 12 1015.5 - 3.4 - Partly cloudy - - - - -
21/07:30am 6.4 E 11 12 1015.4 - 3.4 - Cloudy - - - - -
21/07:00am 6.4 E 10 11 1015.2 - 3.4 - Cloudy - - - - -
21/06:30am 6.4 E 10 11 1015.1 - 3.4 - Partly cloudy - - - - -
21/06:00am 6.4 E 10 11 1015.1 - 3.4 - Cloudy - - - - -
21/05:30am 6.7 E 10 11 1015.0 - 3.4 - Partly cloudy - - - - -
21/05:00am 6.7 E 9 10 1015.2 - 3.4 - Partly cloudy - - - - -
21/04:30am 7.3 E 7 9 1015.4 - 3.4 - Partly cloudy - - - - -
21/04:00am 7.4 ENE 8 10 1015.7 - 3.2 - Partly cloudy - - - - -
21/03:30am 7.0 ENE 7 8 1015.8 - 3.2 - Partly cloudy - - - - -
21/03:00am 7.2 NE 7 9 1016.1 - 3.2 Rain Cloudy - - - - -
21/02:30am 7.8 NE 5 8 1016.5 - 2.6 - Partly cloudy - - - - -
21/02:00am 7.6 CALM 0 0 1016.8 - 1.6 - Partly cloudy - - - - -
21/01:30am 7.5 NNE 4 5 1017.2 - 0.6 - Partly cloudy - - - - -
21/01:00am 7.1 NE 6 7 1017.3 - 0.6 - Partly cloudy - - - - -
21/12:30am 7.4 E 7 8 1017.5 - 0.6 - Partly cloudy - - - - -
21/12:00am 7.9 ENE 3 8 1017.9 - 0.6 Recent precip. Cloudy - - - - -
 
Date/Time
EST
Temp
°C
Wind Pressure Rain since
9am
mm
Weather Cloud Vis
km
Sea
Height
m
Swell
Dir  Spd
kts
Gust
kts
hPa Trend Height
m
Period
s
Dir
20/11:30pm 6.8 ENE 6 6 1018.0 - 0.4 - Partly cloudy - - - - -
20/11:00pm 6.8 E 7 8 1018.0 - 0.4 - Cloudy - - - - -
20/10:30pm 6.7 ESE 8 8 1018.3 - 0.4 - Cloudy - - - - -
20/10:00pm 7.8 ENE 5 7 1018.6 - 0.4 - Partly cloudy - - - - -
20/09:30pm 8.9 N 5 9 1018.8 - 0.4 - Partly cloudy - - - - -
20/09:00pm 8.8 NNW 9 15 1018.9 - 0.4 - Partly cloudy - - - - -
20/08:30pm 9.3 NNW 9 11 1018.9 - 0.4 - Partly cloudy - - - - -
20/08:00pm 8.5 NNW 6 8 1019.1 - 0.4 - Partly cloudy - - - - -
20/07:30pm 9.0 W 1 4 1019.2 - 0.4 - Partly cloudy - - - - -
20/07:00pm 9.3 W 4 6 1019.4 - 0.4 - Partly cloudy - - - - -
20/06:30pm 9.6 WSW 6 10 1019.4 - 0.4 - Partly cloudy - - - - -
20/06:00pm 9.2 W 7 11 1019.4 - 0.4 - Mostly clear - - - - -
20/05:30pm 9.5 WSW 4 8 1019.1 - 0.4 - - - - - - -
20/05:00pm 10.2 WSW 4 7 1018.9 - 0.4 - - - - - - -
20/04:30pm 10.2 SW 6 7 1018.9 - 0.4 - - - - - - -
20/04:00pm 10.5 WSW 6 9 1019.5 - 0.4 - Partly cloudy - - - - -
20/03:30pm 10.4 WSW 7 12 1020.0 - 0.4 - Partly cloudy - - - - -
20/03:00pm 10.3 SW 11 16 1020.2 - 0.4 - Mostly cloudy - - - - -
20/02:30pm 11.3 WSW 5 7 1020.4 - 0.4 - Partly cloudy - - - - -
20/02:00pm 10.4 SSW 5 10 1020.8 - 0.4 - Partly cloudy - - - - -
20/01:30pm 10.1 SW 6 9 1021.2 - 0.4 - Partly cloudy - - - - -
20/01:00pm 10.1 W 5 8 1021.6 - 0.4 - Partly cloudy - - - - -
20/12:30pm 10.1 W 6 9 1022.1 - 0.4 - Partly cloudy - - - - -
20/12:00pm 9.7 SW 8 11 1022.5 - 0.4 Recent precip. Partly cloudy - - - - -
20/11:30am 8.2 SW 13 18 1023.2 - 0.4 - Partly cloudy - - - - -
20/11:00am 9.9 SW 9 11 1023.6 - 0.0 - Partly cloudy - - - - -
20/10:30am 9.9 WSW 7 12 1023.9 - 0.0 - Partly cloudy - - - - -
20/10:00am 9.5 W 7 9 1024.1 - 0.0 - Partly cloudy - - - - -
20/09:30am 8.4 SW 13 27 1024.3 - 0.0 - Partly cloudy - - - - -
20/09:00am 9.7 W 13 19 1024.3 - 2.4 Recent precip. Cloudy - - - - -
20/08:30am 8.9 W 10 14 1024.3 - 2.4 - Partly cloudy - - - - -
20/08:00am 8.4 W 12 19 1024.4 - 2.2 - Partly cloudy - - - - -
20/07:30am 8.8 W 13 20 1024.3 - 1.8 - Partly cloudy - - - - -
20/07:00am 8.6 W 11 17 1024.2 - 1.0 - Partly cloudy - - - - -
20/06:38am 8.6 W 12 22 1024.0 - 0.8 - Partly cloudy - - - - -
20/06:30am 8.8 W 8 11 1023.9 - 0.8 - Partly cloudy - - - - -
20/06:00am 8.8 W 13 22 1023.8 - 0.6 - Mostly cloudy - - - - -
20/05:30am 9.4 W 9 13 1023.9 - 0.6 - Partly cloudy - - - - -
20/05:00am 9.2 W 10 14 1024.1 - 0.6 - - - - - - -
20/04:30am 9.3 W 12 17 1024.1 - 0.6 - Partly cloudy - - - - -
20/04:00am 9.3 WSW 9 15 1024.2 - 0.6 - Partly cloudy - - - - -
20/03:30am 8.7 WSW 7 11 1024.4 - 0.6 - - - - - - -
20/03:00am 7.9 SW 9 15 1024.6 - 0.6 Rain Cloudy - - - - -
20/02:41am 9.0 WSW 11 23 1024.6 - 0.2 - Partly cloudy - - - - -
20/02:30am 9.3 W 6 11 1024.6 - 0.2 - Partly cloudy - - - - -
20/02:00am 9.0 WSW 7 13 1024.8 - 0.2 - Partly cloudy - - - - -
20/01:30am 9.0 WSW 7 11 1025.1 - 0.2 - - - - - - -
20/01:00am 9.0 WSW 9 17 1025.3 - 0.2 - Partly cloudy - - - - -
20/12:30am 9.2 W 13 21 1025.4 - 0.2 - Partly cloudy - - - - -
20/12:00am 8.9 SW 11 15 1025.7 - 0.2 - - - - - - -
 
Date/Time
EST
Temp
°C
Wind Pressure Rain since
9am
mm
Weather Cloud Vis
km
Sea
Height
m
Swell
Dir  Spd
kts
Gust
kts
hPa Trend Height
m
Period
s
Dir
19/11:30pm 9.0 WSW 9 16 1025.7 - 0.2 - Partly cloudy - - - - -
19/11:00pm 8.8 WSW 8 13 1025.8 - 0.2 - Partly cloudy - - - - -
19/10:30pm 8.8 SW 10 16 1025.8 - 0.2 - Partly cloudy - - - - -
19/10:00pm 8.6 SW 10 16 1025.8 - 0.2 - Partly cloudy - - - - -
19/09:30pm 8.5 SW 11 15 1025.8 - 0.2 - Partly cloudy - - - - -
19/09:00pm 8.5 SW 12 16 1025.8 - 0.2 - Mostly clear - - - - -
19/08:30pm 8.5 SW 15 19 1025.7 - 0.2 - Partly cloudy - - - - -
19/08:00pm 8.5 SW 13 17 1025.7 - 0.2 - Partly cloudy - - - - -
19/07:30pm 8.3 SSW 13 19 1025.7 - 0.2 - Partly cloudy - - - - -
19/07:00pm 8.5 SW 14 20 1025.8 - 0.2 - Partly cloudy - - - - -
19/06:30pm 8.3 SW 17 23 1026.0 - 0.2 - Partly cloudy - - - - -
19/06:00pm 8.5 SW 17 25 1025.9 - 0.2 - Mostly cloudy - - - - -
19/05:30pm 8.6 SW 19 24 1025.7 - 0.2 - Partly cloudy - - - - -
19/05:00pm 8.8 SW 21 28 1025.6 - 0.2 - Partly cloudy - - - - -
19/04:30pm 9.2 SW 19 24 1025.3 - 0.2 - Partly cloudy - - - - -
19/04:00pm 9.1 SW 18 26 1025.2 - 0.2 - Partly cloudy - - - - -
19/03:30pm 9.2 SW 21 27 1025.2 - 0.2 - Partly cloudy - - - - -
19/03:16pm 9.7 SW 15 25 1025.1 - 0.2 - Partly cloudy - - - - -
19/03:00pm 9.1 WSW 13 26 1025.2 - 0.2 - Cloudy - - - - -
19/02:46pm 9.4 SW 19 29 1025.1 - 0.2 - Cloudy - - - - -
19/02:30pm 9.3 SW 19 23 1025.2 - 0.2 - Cloudy - - - - -
19/02:00pm 9.2 SW 17 30 1025.2 - 0.2 - Partly cloudy - - - - -
19/01:55pm 9.1 SW 20 30 1025.2 - 0.2 - Partly cloudy - - - - -
19/01:30pm 9.1 SW 19 24 1025.1 - 0.2 - Partly cloudy - - - - -
19/01:00pm 9.5 SW 17 23 1025.2 - 0.2 - Partly cloudy - - - - -
19/12:30pm 9.2 SW 20 26 1025.3 - 0.2 - Partly cloudy - - - - -
19/12:19pm 8.9 SW 15 25 1025.3 - 0.2 - Partly cloudy - - - - -
19/12:00pm 8.8 SW 15 23 1025.4 - 0.2 - Cloudy - - - - -
19/11:30am 8.8 SW 16 23 1025.6 - 0.2 - Partly cloudy - - - - -
19/11:00am 9.3 SSW 11 16 1025.5 - 0.2 - Partly cloudy - - - - -
19/10:43am 8.4 SSW 15 22 1025.5 - 0.2 - Partly cloudy - - - - -
19/10:30am 9.2 SW 8 9 1025.6 - 0.2 - Partly cloudy - - - - -
19/10:00am 7.8 S 6 9 1025.5 - 0.2 - Partly cloudy - - - - -
19/09:30am 7.4 S 9 13 1025.4 - 0.2 - Partly cloudy - - - - -
19/09:00am 6.6 SSE 9 13 1025.2 - 3.8 - Cloudy - - - - -
19/08:30am 7.1 SSE 7 9 1024.7 - 3.8 - Partly cloudy - - - - -
19/08:00am 5.6 SSE 6 10 1024.3 - 3.8 - Partly cloudy - - - - -
19/07:30am 5.8 SSE 6 7 1023.8 - 3.8 - Partly cloudy - - - - -
19/07:00am 6.1 SSE 8 11 1023.4 - 3.8 - Cloudy - - - - -
19/06:30am 5.7 SSE 8 11 1022.9 - 3.8 - Cloudy - - - - -
19/06:00am 6.1 S 10 13 1022.3 - 3.8 - Cloudy - - - - -
19/05:30am 5.4 SSE 9 13 1021.9 - 3.8 - Partly cloudy - - - - -
19/05:00am 4.7 S 7 9 1021.8 - 3.8 - Partly cloudy - - - - -
19/04:30am 4.8 SSE 9 13 1021.3 - 3.8 - Partly cloudy - - - - -
19/04:00am 5.1 SSE 11 13 1021.1 - 3.8 - Partly cloudy - - - - -
19/03:30am 5.5 S 11 16 1020.8 - 3.8 - Partly cloudy - - - - -
19/03:00am 5.6 SSE 11 16 1020.5 - 3.8 - Cloudy - - - - -
19/02:30am 5.6 SSE 12 17 1020.4 - 3.8 - Partly cloudy - - - - -
19/02:00am 5.7 S 11 15 1020.2 - 3.8 - Cloudy - - - - -
19/01:30am 5.8 S 8 12 1020.0 - 3.8 - Partly cloudy - - - - -
19/01:00am 5.1 SSE 11 14 1019.9 - 3.8 - Partly cloudy - - - - -
19/12:30am 4.9 SSE 9 11 1019.5 - 3.8 - Partly cloudy - - - - -
19/12:00am 5.2 SSE 12 15 1019.3 - 3.8 - Mostly clear - - - - -
 
Date/Time
EST
Temp
°C
Wind Pressure Rain since
9am
mm
Weather Cloud Vis
km
Sea
Height
m
Swell
Dir  Spd
kts
Gust
kts
hPa Trend Height
m
Period
s
Dir
18/11:30pm 4.5 SE 11 14 1019.0 - 3.8 - - - - - - -
18/11:00pm 4.8 SSE 10 14 1018.6 - 3.8 - Partly cloudy - - - - -
18/10:30pm 5.5 SSE 15 20 1018.6 - 3.8 - - - - - - -
18/10:00pm 7.1 SSW 17 23 1018.0 - 3.8 - Partly cloudy - - - - -
18/09:41pm 6.4 S 18 29 1017.6 - 3.8 - Partly cloudy - - - - -
18/09:30pm 6.8 S 19 27 1017.5 - 3.6 - Partly cloudy - - - - -
18/09:26pm 7.2 SSW 19 27 1017.4 - 3.4 - Partly cloudy - - - - -
18/09:00pm 7.7 SSW 22 30 1016.8 - 3.4 - Partly cloudy - - - - -
18/08:30pm 8.4 SW 23 31 1016.1 - 3.4 - Partly cloudy - - - - -
18/08:13pm 8.1 SSW 22 32 1015.8 - 3.4 - Partly cloudy - - - - -
18/08:00pm 8.2 SSW 21 29 1015.5 - 3.4 - Partly cloudy - - - - -
18/07:37pm 8.1 SSW 23 33 1015.1 - 3.4 - Partly cloudy - - - - -
18/07:30pm 8.4 SSW 22 30 1015.0 - 3.4 - Partly cloudy - - - - -
18/07:00pm 7.7 SSW 23 33 1014.6 - 3.4 - Partly cloudy - - - - -
18/06:30pm 7.9 SSW 27 39 1013.9 - 3.4 - Partly cloudy - - - - -
18/06:18pm 8.2 SSW 23 33 1013.5 - 3.4 - Partly cloudy - - - - -
18/06:00pm 8.4 SSW 26 34 1013.1 - 3.4 - Partly cloudy - - - - -
18/05:30pm 8.2 SSW 23 34 1012.4 - 3.4 - Partly cloudy - - - - -
18/05:00pm 8.8 SSW 25 35 1011.8 - 3.4 - Partly cloudy - - - - -
18/04:43pm 8.6 SSW 26 41 1011.4 - 3.4 - Partly cloudy - - - - -
18/04:30pm 8.6 SSW 25 33 1011.1 - 3.4 - Partly cloudy - - - - -

Other Formats:

Comma delimited format used in spreadsheet applications
http://www.bom.gov.au/fwo/IDT60701/IDT60701.95954.axf

JavaScript Object Notation format (JSON) in row-major order
http://www.bom.gov.au/fwo/IDT60701/IDT60701.95954.json